FW3234 Weather Reports


time (UTC)temp
F
wind
direction
speed
knots
gust
knots
rain 1hr
in
rain 24hr
in
rain mn
in
humidity
%
barometer
mb
20200531074605 50 237 2.6 9.6 0.00 0.01 0.00 91 1004.1
20200531073051 51 175 5.2 10.4 0.00 0.01 0.00 92 1003.5
20200531071548 51 191 5.2 10.4 0.00 0.01 0.00 92 1003.7
20200531070034 51 171 4.3 12.2 0.00 0.01 0.00 91 1003.4
20200531064607 51 181 4.3 7.8 0.00 0.01 0.01 91 1003.2
20200531063056 52 116 6.1 9.6 0.00 0.01 0.01 91 1002.6
20200531061608 52 329 0.0 7.8 0.00 0.01 0.01 91 1003.0
20200531060054 53 184 1.7 7.0 0.00 0.01 0.01 91 1002.6
20200531054522 53 265 0.9 6.1 0.00 0.01 0.01 91 1002.8
20200531053047 54 214 1.7 10.4 0.00 0.01 0.01 92 1002.4
20200531051520 54 235 1.7 16.5 0.00 0.01 0.01 92 1001.4
20200531050028 55 214 1.7 10.4 0.00 0.01 0.01 91 1001.0
20200531044518 56 204 6.1 14.8 0.00 0.01 0.01 90 1001.3
20200531043006 59 139 4.3 13.0 0.00 0.01 0.01 89 1000.2
20200531041502 63 164 2.6 7.8 0.00 0.01 0.01 85 1000.2
20200531040148 64 252 1.7 7.8 0.00 0.01 0.01 79 1000.2
20200531034744 64 148 0.9 3.5 0.00 0.01 0.01 78 999.1
20200531033335 65 309 0.0 2.6 0.00 0.01 0.01 80 998.4
20200531031640 65 299 0.0 3.5 0.00 0.01 0.01 78 999.0
20200531030346 67 264 0.9 5.2 0.01 0.01 0.01 79 998.5
20200531024629 68 282 1.7 7.0 0.01 0.01 0.01 77 998.1
20200531023158 68 251 0.9 4.3 0.01 0.01 0.01 81 998.1
20200531021626 73 255 0.0 9.6 0.01 0.01 0.01 75 997.0
20200531020152 75 98 0.0 0.9 0.00 0.00 0.00 69 994.0
20200531013244 77 36 0.0 4.3 0.00 0.00 0.00 64 993.6
20200531011838 79 345 0.9 3.5 0.00 0.00 0.00 62 993.4
20200531010132 80 12 0.0 3.5 0.00 0.00 0.00 61 994.1
20200531004623 81 68 0.0 3.5 0.00 0.00 0.00 58 994.5
20200531003055 81 8 0.9 5.2 0.00 0.00 0.00 56 995.1
20200531001748 82 31 0.9 6.1 0.00 0.00 0.00 53 995.2
20200531000124 82 2 0.9 6.1 0.00 0.00 0.00 53 995.4
20200530234618 83 51 1.7 5.2 0.00 0.00 0.00 50 995.7
20200530233050 83 308 2.6 7.8 0.00 0.00 0.00 50 995.9
20200530231555 83 84 2.6 8.7 0.00 0.00 0.00 50 996.1
20200530230051 82 179 1.7 9.6 0.00 0.00 0.00 51 996.4
20200530224611 80 9 0.9 7.8 0.00 0.00 0.00 55 997.2
20200530223036 81 63 2.6 7.0 0.00 0.00 0.00 52 997.7
20200530221612 80 55 2.6 10.4 0.00 0.00 0.00 54 998.1
20200530220125 80 38 2.6 8.7 0.00 0.00 0.00 53 998.4
20200530214540 78 102 2.6 8.7 0.00 0.00 0.00 55 998.6
20200530213100 78 56 2.6 7.8 0.00 0.00 0.00 54 998.7
20200530211516 79 72 2.6 7.8 0.00 0.00 0.00 53 998.9
20200530210019 77 73 1.7 9.6 0.00 0.00 0.00 54 999.3
20200530204533 77 20 2.6 6.1 0.00 0.00 0.00 53 1000.2
20200530203030 76 56 1.7 7.0 0.00 0.00 0.00 53 1001.2
20200530201502 75 78 0.9 5.2 0.00 0.00 0.00 55 1001.1
20200530200146 75 344 0.9 5.2 0.00 0.00 0.00 55 1001.8
20200530194646 76 55 2.6 9.6 0.00 0.00 0.00 55 1001.3
20200530193120 75 18 3.5 13.9 0.00 0.00 0.00 56 1000.3
20200530191755 72 339 5.2 11.3 0.00 0.00 0.00 61 1000.5
20200530190122 69 44 1.7 7.8 0.00 0.00 0.00 67 1002.4
20200530184713 69 99 0.0 5.2 0.00 0.00 0.00 65 1004.5
20200530183057 70 150 0.0 1.7 0.00 0.00 0.00 68 1005.0
20200530181559 70 113 0.0 0.9 0.00 0.00 0.00 65 1003.9
20200530180040 69 37 0.0 3.5 0.00 0.00 0.00 64 1003.7
20200530174548 69 110 0.9 2.6 0.00 0.00 0.00 62 1003.9
20200530173118 69 17 0.0 8.7 0.00 0.00 0.00 63 1003.8
20200530171647 68 42 0.0 7.0 0.00 0.00 0.00 66 1004.2
20200530170102 65 262 0.9 5.2 0.00 0.00 0.00 70 1004.4
20200530163024 63 327 0.0 0.0 0.00 0.00 0.00 78 1006.0
20200530161521 63 300 0.0 0.9 0.00 0.00 0.00 76 1006.0
20200530160010 62 117 0.0 0.9 0.00 0.00 0.00 80 1006.0
20200530154518 62 7 0.0 0.9 0.00 0.00 0.00 79 1006.2
20200530153014 62 177 0.0 0.0 0.00 0.00 0.00 81 1006.1
20200530151502 62 174 0.0 1.7 0.00 0.00 0.00 77 1005.6
20200530150002 63 203 0.0 1.7 0.00 0.00 0.00 72 1005.4
20200530144745 63 96 0.0 0.9 0.00 0.00 0.00 74 1004.7
20200530143229 63 25 0.0 3.5 0.00 0.00 0.00 73 1004.8
20200530141736 63 70 0.0 1.7 0.00 0.00 0.00 73 1004.8
20200530140145 63 73 0.0 2.6 0.00 0.00 0.00 73 1004.7
20200530134631 63 77 0.9 2.6 0.00 0.00 0.00 71 1004.5
20200530133139 63 53 0.0 1.7 0.00 0.00 0.00 73 1004.6
20200530131634 63 80 0.0 2.6 0.00 0.00 0.00 73 1004.8
20200530130103 62 84 0.0 1.7 0.00 0.00 0.00 74 1004.7
20200530124637 63 120 0.0 0.0 0.00 0.00 0.00 73 1005.1
20200530123105 63 13 0.0 5.2 0.00 0.00 0.00 72 1005.0
20200530121656 62 108 0.0 1.7 0.00 0.00 0.00 75 1005.1
20200530120102 63 20 0.0 6.1 0.00 0.00 0.00 75 1005.3
20200530114611 62 70 0.9 3.5 0.00 0.00 0.00 80 1005.2
20200530113209 62 131 0.0 0.0 0.00 0.00 0.00 81 1005.4
20200530111602 62 148 0.0 0.0 0.00 0.00 0.00 83 1005.2
20200530110119 61 87 0.0 1.7 0.00 0.00 0.00 84 1005.3
20200530104627 61 68 0.0 3.5 0.00 0.00 0.00 84 1005.5
20200530103103 62 60 0.0 0.0 0.00 0.00 0.00 83 1005.8
20200530101544 61 91 0.0 0.0 0.00 0.00 0.00 84 1005.8
20200530100045 61 139 0.0 0.0 0.00 0.00 0.00 85 1006.0
20200530094626 62 139 0.0 0.0 0.00 0.00 0.00 85 1006.2
20200530093032 61 140 0.0 0.0 0.00 0.00 0.00 85 1006.3
20200530091627 61 151 0.0 0.0 0.00 0.00 0.00 86 1006.3
20200530090116 61 150 0.0 0.0 0.00 0.00 0.00 86 1006.5
20200530084555 61 150 0.0 0.0 0.00 0.00 0.00 86 1006.8
20200530083102 60 150 0.0 0.0 0.00 0.00 0.00 87 1006.9
20200530081642 61 150 0.0 0.0 0.00 0.00 0.00 86 1006.9
20200530080040 61 150 0.0 0.0 0.00 0.00 0.00 85 1007.0